When you browse on this site, cookies collect data to enhance your experience and personalize the content and advertising you see.
Visit our Privacy Policy to learn more. By continuing to use the site, you agree to this use of cookies and data.
  • In Czech Republic
  • List of Countries
  • For 7 days
  • Water Temperature
  • Satellite Maps
  • Weather Map
  • Weather Widgets
  • user-avatar
    Login

    Hourly Weather Beijing

    Today, 22 January, Tuesday

    Time Temperature Precipitation Wind Pressure Humidity
    00:00 +1°C° 0 mm 2 mps 762 mmHg 19%
    01:00 -1°C° 0 mm 2 mps 762 mmHg 20%
    02:00 +1°C° 0 mm 1 mps 762 mmHg 21%
    03:00 +1°C° 0 mm 1 mps 761 mmHg 21%
    04:00 -1°C° 0 mm 2 mps 761 mmHg 22%
    05:00 -1°C° 0 mm 2 mps 761 mmHg 22%
    06:00 -1°C° 0 mm 2 mps 761 mmHg 22%
    07:00 -2°C° 0 mm 2 mps 761 mmHg 23%
    08:00 -2°C° 0 mm 2 mps 761 mmHg 23%
    09:00 +1°C° 0 mm 2 mps 761 mmHg 20%
    10:00 +3°C° 0 mm 2 mps 761 mmHg 18%
    11:00 +5°C° 0 mm 2 mps 761 mmHg 16%
    12:00 +6°C° 0 mm 2 mps 761 mmHg 14%
    13:00 +8°C° 0 mm 2 mps 760 mmHg 13%
    14:00 +9°C° 0 mm 2 mps 760 mmHg 11%
    15:00 +8°C° 0 mm 2 mps 760 mmHg 12%
    16:00 +8°C° 0 mm 1 mps 760 mmHg 13%
    17:00 +8°C° 0 mm 1 mps 760 mmHg 14%
    18:00 +6°C° 0 mm 1 mps 761 mmHg 16%
    19:00 +5°C° 0 mm 1 mps 761 mmHg 17%
    20:00 +4°C° 0 mm 1 mps 761 mmHg 18%
    21:00 +4°C° 0 mm 1 mps 762 mmHg 19%
    22:00 +3°C° 0 mm 1 mps 762 mmHg 20%
    23:00 +3°C° 0 mm 1 mps 763 mmHg 21%

    Tomorrow, 23 January, Wednesday

    Time Temperature Precipitation Wind Pressure Humidity
    00:00 +2°C° 0 mm 2 mps 763 mmHg 21%
    01:00 +1°C° 0 mm 2 mps 763 mmHg 21%
    02:00 +1°C° 0 mm 2 mps 763 mmHg 21%
    03:00 +1°C° 0 mm 2 mps 763 mmHg 22%
    04:00 +1°C° 0 mm 2 mps 764 mmHg 22%
    05:00 -1°C° 0 mm 2 mps 764 mmHg 22%
    06:00 +1°C° 0 mm 1 mps 764 mmHg 23%
    07:00 +1°C° 0 mm 1 mps 765 mmHg 23%
    08:00 +1°C° 0 mm 1 mps 765 mmHg 24%
    09:00 +2°C° 0 mm 1 mps 765 mmHg 22%
    10:00 +4°C° 0 mm 1 mps 766 mmHg 21%
    11:00 +6°C° 0 mm 1 mps 766 mmHg 19%
    12:00 +6°C° 0 mm 1 mps 765 mmHg 19%
    13:00 +7°C° 0 mm 1 mps 765 mmHg 18%
    14:00 +7°C° 0 mm 2 mps 764 mmHg 18%
    15:00 +7°C° 0 mm 1 mps 764 mmHg 20%
    16:00 +7°C° 0 mm 1 mps 765 mmHg 21%
    17:00 +6°C° 0 mm 1 mps 765 mmHg 23%
    18:00 +5°C° 0 mm 1 mps 765 mmHg 29%
    19:00 +3°C° 0 mm 2 mps 765 mmHg 35%
    20:00 +2°C° 0 mm 2 mps 766 mmHg 41%
    21:00 +2°C° 0 mm 2 mps 766 mmHg 48%
    22:00 +2°C° 0 mm 1 mps 766 mmHg 55%
    23:00 +1°C° 0 mm 1 mps 766 mmHg 62%

    Day after tomorrow, 24 January, Thursday

    Time Temperature Precipitation Wind Pressure Humidity
    00:00 +1°C° 0 mm 1 mps 766 mmHg 66%
    01:00 0°C° 0 mm 1 mps 766 mmHg 70%
    02:00 0°C° 0 mm 1 mps 766 mmHg 73%
    03:00 0°C° 0 mm 1 mps 766 mmHg 75%
    04:00 0°C° 0 mm 1 mps 766 mmHg 77%
    05:00 -1°C° 0 mm 1 mps 765 mmHg 79%
    06:00 -1°C° 0 mm 1 mps 766 mmHg 80%
    07:00 -1°C° 0 mm 1 mps 766 mmHg 81%
    08:00 -1°C° 0 mm 1 mps 766 mmHg 81%
    09:00 0°C° 0 mm 1 mps 766 mmHg 75%
    10:00 +1°C° 0 mm 1 mps 766 mmHg 69%
    11:00 +2°C° 0 mm 1 mps 766 mmHg 63%
    12:00 +3°C° 0 mm 1 mps 766 mmHg 59%
    13:00 +4°C° 0 mm 1 mps 765 mmHg 54%
    14:00 +5°C° 0 mm 1 mps 765 mmHg 50%
    15:00 +5°C° 0 mm 1 mps 765 mmHg 51%
    16:00 +4°C° 0 mm 1 mps 765 mmHg 52%
    17:00 +4°C° 0 mm 1 mps 765 mmHg 52%
    18:00 +3°C° 0 mm 1 mps 766 mmHg 55%
    19:00 +3°C° 0 mm 1 mps 767 mmHg 58%
    20:00 +2°C° 0 mm 1 mps 768 mmHg 61%
    21:00 +2°C° 0 mm 1 mps 768 mmHg 61%
    22:00 +2°C° 0 mm 1 mps 769 mmHg 60%
    23:00 +2°C° 0 mm 1 mps 770 mmHg 60%

    25 January, Friday

    Time Temperature Precipitation Wind Pressure Humidity
    00:00 +1°C° 0 mm 1 mps 770 mmHg 56%
    01:00 +1°C° 0 mm 1 mps 770 mmHg 53%
    02:00 -1°C° 0 mm 2 mps 771 mmHg 49%
    03:00 -1°C° 0 mm 2 mps 771 mmHg 44%
    04:00 -2°C° 0 mm 2 mps 771 mmHg 38%
    05:00 -2°C° 0 mm 2 mps 771 mmHg 33%
    06:00 -2°C° 0 mm 2 mps 772 mmHg 32%
    07:00 -2°C° 0 mm 2 mps 773 mmHg 32%
    08:00 -2°C° 0 mm 2 mps 773 mmHg 31%
    09:00 -1°C° 0 mm 2 mps 773 mmHg 29%
    10:00 0°C° 0 mm 3 mps 774 mmHg 26%
    11:00 +1°C° 0 mm 3 mps 774 mmHg 24%
    12:00 +2°C° 0 mm 3 mps 773 mmHg 21%
    13:00 +3°C° 0 mm 3 mps 773 mmHg 19%
    14:00 +4°C° 0 mm 3 mps 772 mmHg 17%
    15:00 +3°C° 0 mm 3 mps 772 mmHg 17%
    16:00 +4°C° 0 mm 2 mps 772 mmHg 16%
    17:00 +4°C° 0 mm 2 mps 772 mmHg 16%
    18:00 +3°C° 0 mm 2 mps 773 mmHg 17%
    19:00 +2°C° 0 mm 2 mps 774 mmHg 18%
    20:00 +2°C° 0 mm 1 mps 774 mmHg 19%
    21:00 +1°C° 0 mm 1 mps 775 mmHg 20%
    22:00 +1°C° 0 mm 1 mps 775 mmHg 20%
    23:00 0°C° 0 mm 1 mps 775 mmHg 20%

    26 January, Saturday

    Time Temperature Precipitation Wind Pressure Humidity
    00:00 0°C° 0 mm 1 mps 775 mmHg 21%
    01:00 0°C° 0 mm 1 mps 775 mmHg 21%
    02:00 0°C° 0 mm 1 mps 775 mmHg 21%
    03:00 -1°C° 0 mm 1 mps 775 mmHg 22%
    04:00 -1°C° 0 mm 1 mps 775 mmHg 22%
    05:00 -1°C° 0 mm 1 mps 774 mmHg 22%
    06:00 -1°C° 0 mm 1 mps 775 mmHg 22%
    07:00 -1°C° 0 mm 1 mps 775 mmHg 23%
    08:00 -1°C° 0 mm 1 mps 775 mmHg 23%
    09:00 0°C° 0 mm 1 mps 775 mmHg 21%
    10:00 0°C° 0 mm 0 mps 775 mmHg 19%
    11:00 +2°C° 0 mm 0 mps 774 mmHg 17%
    12:00 +3°C° 0 mm 1 mps 773 mmHg 17%
    13:00 +4°C° 0 mm 1 mps 773 mmHg 17%
    14:00 +5°C° 0 mm 1 mps 772 mmHg 17%
    15:00 +4°C° 0 mm 1 mps 771 mmHg 19%
    16:00 +4°C° 0 mm 1 mps 771 mmHg 22%
    17:00 +4°C° 0 mm 1 mps 771 mmHg 24%
    18:00 +3°C° 0 mm 1 mps 771 mmHg 27%
    19:00 +2°C° 0 mm 1 mps 771 mmHg 29%
    20:00 +2°C° 0 mm 1 mps 771 mmHg 32%
    21:00 +1°C° 0 mm 1 mps 771 mmHg 32%
    22:00 +1°C° 0 mm 1 mps 771 mmHg 33%
    23:00 0°C° 0 mm 1 mps 771 mmHg 34%

    27 January, Sunday

    Time Temperature Precipitation Wind Pressure Humidity
    00:00 0°C° 0 mm 1 mps 770 mmHg 34%
    01:00 0°C° 0 mm 1 mps 770 mmHg 34%
    02:00 0°C° 0 mm 1 mps 769 mmHg 35%
    03:00 -1°C° 0 mm 1 mps 769 mmHg 35%
    04:00 -1°C° 0 mm 1 mps 768 mmHg 35%
    05:00 -1°C° 0 mm 1 mps 768 mmHg 35%
    06:00 -2°C° 0 mm 0 mps 768 mmHg 35%
    07:00 -2°C° 0 mm 0 mps 768 mmHg 34%
    08:00 -2°C° 0 mm 0 mps 768 mmHg 34%
    09:00 -1°C° 0 mm 0 mps 768 mmHg 31%
    10:00 0°C° 0 mm 0 mps 767 mmHg 28%
    11:00 +2°C° 0 mm 0 mps 767 mmHg 26%
    12:00 +4°C° 0 mm 1 mps 766 mmHg 24%
    13:00 +5°C° 0 mm 1 mps 765 mmHg 22%
    14:00 +6°C° 0 mm 1 mps 764 mmHg 20%
    15:00 +5°C° 0 mm 1 mps 764 mmHg 21%
    16:00 +5°C° 0 mm 1 mps 764 mmHg 21%
    17:00 +5°C° 0 mm 1 mps 764 mmHg 21%
    18:00 +4°C° 0 mm 1 mps 764 mmHg 23%
    19:00 +4°C° 0 mm 1 mps 764 mmHg 24%
    20:00 +3°C° 0 mm 1 mps 765 mmHg 26%
    21:00 +2°C° 0 mm 2 mps 765 mmHg 26%
    22:00 +2°C° 0 mm 2 mps 765 mmHg 27%
    23:00 +1°C° 0 mm 3 mps 766 mmHg 27%
    Show more